Tracking 35331 objects as of 16-Sep-2026
HD Live streaming from Space Station
objects crossing your sky now

FLOCK 4S 12


FLOCK 4S 12 is no longer on orbit
FLOCK 4S 12 is classified as:


NORAD ID: 47471
Int'l Code: 2021-006BL
Launch date: January 24, 2021
Source: United States (US)
Launch site: ()
Decay date: 2024-08-26
Your satellite tracking list
Your tracking list is empty




NASA's NSSDC Master Catalog

Two Line Element Set (TLE):
1 47471U 21006BL  24239.41961588  .17449883  25045-5  39029-3 0  9995
2 47471  97.2847 307.8305 0011066 270.9172  89.0862 16.45783885200011
Source of the keplerian elements: AFSPC